CCSDS_OMM_VERS = 2.0 CREATION_DATE = ORIGINATOR = OBJECT_NAME = TDRS 3 OBJECT_ID = 1988-091B CENTER_NAME = EARTH REF_FRAME = TEME TIME_SYSTEM = UTC MEAN_ELEMENT_THEORY = SGP/SGP4 EPOCH = 2026-09-12T01:41:59.485632 MEAN_MOTION = 1.00275382 ECCENTRICITY = .00385294 INCLINATION = 12.5375 RA_OF_ASC_NODE = 340.4204 ARG_OF_PERICENTER = 352.3746 MEAN_ANOMALY = 354.9541 EPHEMERIS_TYPE = 0 CLASSIFICATION_TYPE = U NORAD_CAT_ID = 19548 ELEMENT_SET_NO = 999 REV_AT_EPOCH = 12625 BSTAR = 0 MEAN_MOTION_DOT = -.31000E-5 MEAN_MOTION_DDOT = 0 CCSDS_OMM_VERS = 2.0 CREATION_DATE = ORIGINATOR = OBJECT_NAME = HST OBJECT_ID = 1990-037B CENTER_NAME = EARTH REF_FRAME = TEME TIME_SYSTEM = UTC MEAN_ELEMENT_THEORY = SGP/SGP4 EPOCH = 2026-09-12T05:15:24.763104 MEAN_MOTION = 15.31621652 ECCENTRICITY = .00017951 INCLINATION = 28.473 RA_OF_ASC_NODE = 205.3366 ARG_OF_PERICENTER = 39.5104 MEAN_ANOMALY = 320.5623 EPHEMERIS_TYPE = 0 CLASSIFICATION_TYPE = U NORAD_CAT_ID = 20580 ELEMENT_SET_NO = 999 REV_AT_EPOCH = 80192 BSTAR = .14867E-3 MEAN_MOTION_DOT = .49060E-4 MEAN_MOTION_DDOT = 0 CCSDS_OMM_VERS = 2.0 CREATION_DATE = ORIGINATOR = OBJECT_NAME = TDRS 5 OBJECT_ID = 1991-054B CENTER_NAME = EARTH REF_FRAME = TEME TIME_SYSTEM = UTC MEAN_ELEMENT_THEORY = SGP/SGP4 EPOCH = 2026-09-11T13:21:12.161664 MEAN_MOTION = 1.00279051 ECCENTRICITY = .00092685 INCLINATION = 14.0613 RA_OF_ASC_NODE = 353.1301 ARG_OF_PERICENTER = 252.0179 MEAN_ANOMALY = 138.2405 EPHEMERIS_TYPE = 0 CLASSIFICATION_TYPE = U NORAD_CAT_ID = 21639 ELEMENT_SET_NO = 999 REV_AT_EPOCH = 12858 BSTAR = 0 MEAN_MOTION_DOT = .74000E-6 MEAN_MOTION_DDOT = 0 CCSDS_OMM_VERS = 2.0 CREATION_DATE = ORIGINATOR = OBJECT_NAME = TDRS 6 OBJECT_ID = 1993-003B CENTER_NAME = EARTH REF_FRAME = TEME TIME_SYSTEM = UTC MEAN_ELEMENT_THEORY = SGP/SGP4 EPOCH = 2026-09-11T17:06:19.139328 MEAN_MOTION = 1.00276161 ECCENTRICITY = .0009562 INCLINATION = 14.1857 RA_OF_ASC_NODE = 356.4041 ARG_OF_PERICENTER = 198.6463 MEAN_ANOMALY = 6.4408 EPHEMERIS_TYPE = 0 CLASSIFICATION_TYPE = U NORAD_CAT_ID = 22314 ELEMENT_SET_NO = 999 REV_AT_EPOCH = 12327 BSTAR = 0 MEAN_MOTION_DOT = -.30600E-5 MEAN_MOTION_DDOT = 0 CCSDS_OMM_VERS = 2.0 CREATION_DATE = ORIGINATOR = OBJECT_NAME = TDRS 7 OBJECT_ID = 1995-035B CENTER_NAME = EARTH REF_FRAME = TEME TIME_SYSTEM = UTC MEAN_ELEMENT_THEORY = SGP/SGP4 EPOCH = 2026-09-11T16:45:51.754752 MEAN_MOTION = 1.00274271 ECCENTRICITY = .00113317 INCLINATION = 13.3018 RA_OF_ASC_NODE = 347.5844 ARG_OF_PERICENTER = 99.0369 MEAN_ANOMALY = 244.8034 EPHEMERIS_TYPE = 0 CLASSIFICATION_TYPE = U NORAD_CAT_ID = 23613 ELEMENT_SET_NO = 999 REV_AT_EPOCH = 11411 BSTAR = 0 MEAN_MOTION_DOT = -.25200E-5 MEAN_MOTION_DDOT = 0 CCSDS_OMM_VERS = 2.0 CREATION_DATE = ORIGINATOR = OBJECT_NAME = ISS (ZARYA) OBJECT_ID = 1998-067A CENTER_NAME = EARTH REF_FRAME = TEME TIME_SYSTEM = UTC MEAN_ELEMENT_THEORY = SGP/SGP4 EPOCH = 2026-09-12T04:59:21.263136 MEAN_MOTION = 15.4908657 ECCENTRICITY = .00049527 INCLINATION = 51.6305 RA_OF_ASC_NODE = 229.4056 ARG_OF_PERICENTER = 131.3152 MEAN_ANOMALY = 228.8264 EPHEMERIS_TYPE = 0 CLASSIFICATION_TYPE = U NORAD_CAT_ID = 25544 ELEMENT_SET_NO = 999 REV_AT_EPOCH = 58524 BSTAR = .97729E-4 MEAN_MOTION_DOT = .49540E-4 MEAN_MOTION_DDOT = 0 CCSDS_OMM_VERS = 2.0 CREATION_DATE = ORIGINATOR = OBJECT_NAME = TERRA OBJECT_ID = 1999-068A CENTER_NAME = EARTH REF_FRAME = TEME TIME_SYSTEM = UTC MEAN_ELEMENT_THEORY = SGP/SGP4 EPOCH = 2026-09-12T06:12:30.582720 MEAN_MOTION = 14.6115869 ECCENTRICITY = .00015531 INCLINATION = 97.9374 RA_OF_ASC_NODE = 301.3181 ARG_OF_PERICENTER = 353.3189 MEAN_ANOMALY = 48.7649 EPHEMERIS_TYPE = 0 CLASSIFICATION_TYPE = U NORAD_CAT_ID = 25994 ELEMENT_SET_NO = 999 REV_AT_EPOCH = 42232 BSTAR = .55821E-4 MEAN_MOTION_DOT = .23100E-5 MEAN_MOTION_DDOT = 0 CCSDS_OMM_VERS = 2.0 CREATION_DATE = ORIGINATOR = OBJECT_NAME = TDRS 8 OBJECT_ID = 2000-034A CENTER_NAME = EARTH REF_FRAME = TEME TIME_SYSTEM = UTC MEAN_ELEMENT_THEORY = SGP/SGP4 EPOCH = 2026-09-11T20:27:38.505600 MEAN_MOTION = 1.00271493 ECCENTRICITY = .00015732 INCLINATION = 12.8186 RA_OF_ASC_NODE = 30.568 ARG_OF_PERICENTER = 100.7099 MEAN_ANOMALY = 251.3448 EPHEMERIS_TYPE = 0 CLASSIFICATION_TYPE = U NORAD_CAT_ID = 26388 ELEMENT_SET_NO = 999 REV_AT_EPOCH = 9604 BSTAR = 0 MEAN_MOTION_DOT = -.20600E-5 MEAN_MOTION_DDOT = 0 CCSDS_OMM_VERS = 2.0 CREATION_DATE = ORIGINATOR = OBJECT_NAME = TIMED OBJECT_ID = 2001-055B CENTER_NAME = EARTH REF_FRAME = TEME TIME_SYSTEM = UTC MEAN_ELEMENT_THEORY = SGP/SGP4 EPOCH = 2026-09-12T04:20:07.357344 MEAN_MOTION = 14.95450248 ECCENTRICITY = .00019425 INCLINATION = 74.0665 RA_OF_ASC_NODE = 59.8333 ARG_OF_PERICENTER = 237.204 MEAN_ANOMALY = 122.8958 EPHEMERIS_TYPE = 0 CLASSIFICATION_TYPE = U NORAD_CAT_ID = 26998 ELEMENT_SET_NO = 999 REV_AT_EPOCH = 34382 BSTAR = .80929E-4 MEAN_MOTION_DOT = .85500E-5 MEAN_MOTION_DDOT = 0 CCSDS_OMM_VERS = 2.0 CREATION_DATE = ORIGINATOR = OBJECT_NAME = AQUA OBJECT_ID = 2002-022A CENTER_NAME = EARTH REF_FRAME = TEME TIME_SYSTEM = UTC MEAN_ELEMENT_THEORY = SGP/SGP4 EPOCH = 2026-09-12T05:39:22.159296 MEAN_MOTION = 14.6219831 ECCENTRICITY = .00016379 INCLINATION = 98.4385 RA_OF_ASC_NODE = 226.3026 ARG_OF_PERICENTER = 70.0506 MEAN_ANOMALY = 346.6067 EPHEMERIS_TYPE = 0 CLASSIFICATION_TYPE = U NORAD_CAT_ID = 27424 ELEMENT_SET_NO = 999 REV_AT_EPOCH = 29599 BSTAR = .10895E-3 MEAN_MOTION_DOT = .49900E-5 MEAN_MOTION_DDOT = 0 CCSDS_OMM_VERS = 2.0 CREATION_DATE = ORIGINATOR = OBJECT_NAME = SORCE OBJECT_ID = 2003-004A CENTER_NAME = EARTH REF_FRAME = TEME TIME_SYSTEM = UTC MEAN_ELEMENT_THEORY = SGP/SGP4 EPOCH = 2026-09-12T03:07:18.098112 MEAN_MOTION = 15.04097885 ECCENTRICITY = .00184367 INCLINATION = 39.99 RA_OF_ASC_NODE = 125.4775 ARG_OF_PERICENTER = 312.8964 MEAN_ANOMALY = 47.0283 EPHEMERIS_TYPE = 0 CLASSIFICATION_TYPE = U NORAD_CAT_ID = 27651 ELEMENT_SET_NO = 999 REV_AT_EPOCH = 28499 BSTAR = .14367E-3 MEAN_MOTION_DOT = .18790E-4 MEAN_MOTION_DDOT = 0 CCSDS_OMM_VERS = 2.0 CREATION_DATE = ORIGINATOR = OBJECT_NAME = AURA OBJECT_ID = 2004-026A CENTER_NAME = EARTH REF_FRAME = TEME TIME_SYSTEM = UTC MEAN_ELEMENT_THEORY = SGP/SGP4 EPOCH = 2026-09-12T05:09:56.109600 MEAN_MOTION = 14.61437156 ECCENTRICITY = .00015499 INCLINATION = 98.3508 RA_OF_ASC_NODE = 212.4317 ARG_OF_PERICENTER = 70.5005 MEAN_ANOMALY = 289.6362 EPHEMERIS_TYPE = 0 CLASSIFICATION_TYPE = U NORAD_CAT_ID = 28376 ELEMENT_SET_NO = 999 REV_AT_EPOCH = 17892 BSTAR = .11103E-3 MEAN_MOTION_DOT = .50100E-5 MEAN_MOTION_DDOT = 0 CCSDS_OMM_VERS = 2.0 CREATION_DATE = ORIGINATOR = OBJECT_NAME = SWIFT OBJECT_ID = 2004-047A CENTER_NAME = EARTH REF_FRAME = TEME TIME_SYSTEM = UTC MEAN_ELEMENT_THEORY = SGP/SGP4 EPOCH = 2026-09-12T05:58:08.562144 MEAN_MOTION = 15.80115486 ECCENTRICITY = .00021388 INCLINATION = 20.5507 RA_OF_ASC_NODE = 228.4892 ARG_OF_PERICENTER = 171.2867 MEAN_ANOMALY = 188.7618 EPHEMERIS_TYPE = 0 CLASSIFICATION_TYPE = U NORAD_CAT_ID = 28485 ELEMENT_SET_NO = 999 REV_AT_EPOCH = 20059 BSTAR = .65200E-3 MEAN_MOTION_DOT = .13096E-2 MEAN_MOTION_DDOT = 0 CCSDS_OMM_VERS = 2.0 CREATION_DATE = ORIGINATOR = OBJECT_NAME = THEMIS A OBJECT_ID = 2007-004A CENTER_NAME = EARTH REF_FRAME = TEME TIME_SYSTEM = UTC MEAN_ELEMENT_THEORY = SGP/SGP4 EPOCH = 2026-09-10T17:50:50.426016 MEAN_MOTION = 0.87844081 ECCENTRICITY = .833622 INCLINATION = 9.2785 RA_OF_ASC_NODE = 102.1929 ARG_OF_PERICENTER = 216.1021 MEAN_ANOMALY = 39.1197 EPHEMERIS_TYPE = 0 CLASSIFICATION_TYPE = U NORAD_CAT_ID = 30580 ELEMENT_SET_NO = 999 REV_AT_EPOCH = 4203 BSTAR = 0 MEAN_MOTION_DOT = -.38000E-5 MEAN_MOTION_DDOT = 0 CCSDS_OMM_VERS = 2.0 CREATION_DATE = ORIGINATOR = OBJECT_NAME = THEMIS D OBJECT_ID = 2007-004D CENTER_NAME = EARTH REF_FRAME = TEME TIME_SYSTEM = UTC MEAN_ELEMENT_THEORY = SGP/SGP4 EPOCH = 2026-08-30T17:18:21.510720 MEAN_MOTION = 0.8783899 ECCENTRICITY = .83102633 INCLINATION = 8.15 RA_OF_ASC_NODE = 76.2506 ARG_OF_PERICENTER = 243.0983 MEAN_ANOMALY = 30.3589 EPHEMERIS_TYPE = 0 CLASSIFICATION_TYPE = U NORAD_CAT_ID = 30797 ELEMENT_SET_NO = 999 REV_AT_EPOCH = 4173 BSTAR = 0 MEAN_MOTION_DOT = -.42600E-5 MEAN_MOTION_DDOT = 0 CCSDS_OMM_VERS = 2.0 CREATION_DATE = ORIGINATOR = OBJECT_NAME = THEMIS E OBJECT_ID = 2007-004E CENTER_NAME = EARTH REF_FRAME = TEME TIME_SYSTEM = UTC MEAN_ELEMENT_THEORY = SGP/SGP4 EPOCH = 2026-09-11T10:18:39.231936 MEAN_MOTION = 0.8783977 ECCENTRICITY = .84196712 INCLINATION = 7.077 RA_OF_ASC_NODE = 91.6612 ARG_OF_PERICENTER = 232.4533 MEAN_ANOMALY = 20.9912 EPHEMERIS_TYPE = 0 CLASSIFICATION_TYPE = U NORAD_CAT_ID = 30798 ELEMENT_SET_NO = 999 REV_AT_EPOCH = 6668 BSTAR = 0 MEAN_MOTION_DOT = -.46200E-5 MEAN_MOTION_DDOT = 0 CCSDS_OMM_VERS = 2.0 CREATION_DATE = ORIGINATOR = OBJECT_NAME = FGRST (GLAST) OBJECT_ID = 2008-029A CENTER_NAME = EARTH REF_FRAME = TEME TIME_SYSTEM = UTC MEAN_ELEMENT_THEORY = SGP/SGP4 EPOCH = 2026-09-12T07:16:54.312096 MEAN_MOTION = 15.24338581 ECCENTRICITY = .00074639 INCLINATION = 25.583 RA_OF_ASC_NODE = 319.4079 ARG_OF_PERICENTER = 274.8901 MEAN_ANOMALY = 85.0785 EPHEMERIS_TYPE = 0 CLASSIFICATION_TYPE = U NORAD_CAT_ID = 33053 ELEMENT_SET_NO = 999 REV_AT_EPOCH = 899 BSTAR = .83961E-4 MEAN_MOTION_DOT = .24520E-4 MEAN_MOTION_DDOT = 0 CCSDS_OMM_VERS = 2.0 CREATION_DATE = ORIGINATOR = OBJECT_NAME = TDRS 11 OBJECT_ID = 2013-004A CENTER_NAME = EARTH REF_FRAME = TEME TIME_SYSTEM = UTC MEAN_ELEMENT_THEORY = SGP/SGP4 EPOCH = 2026-09-12T06:14:03.397920 MEAN_MOTION = 1.00267421 ECCENTRICITY = .00037282 INCLINATION = 3.653 RA_OF_ASC_NODE = 32.5282 ARG_OF_PERICENTER = 44.1323 MEAN_ANOMALY = 193.8138 EPHEMERIS_TYPE = 0 CLASSIFICATION_TYPE = U NORAD_CAT_ID = 39070 ELEMENT_SET_NO = 999 REV_AT_EPOCH = 4756 BSTAR = 0 MEAN_MOTION_DOT = .66000E-6 MEAN_MOTION_DDOT = 0 CCSDS_OMM_VERS = 2.0 CREATION_DATE = ORIGINATOR = OBJECT_NAME = TDRS 12 OBJECT_ID = 2014-004A CENTER_NAME = EARTH REF_FRAME = TEME TIME_SYSTEM = UTC MEAN_ELEMENT_THEORY = SGP/SGP4 EPOCH = 2026-09-12T06:51:59.759712 MEAN_MOTION = 1.002703 ECCENTRICITY = .00063525 INCLINATION = 4.069 RA_OF_ASC_NODE = 20.4192 ARG_OF_PERICENTER = 215.7269 MEAN_ANOMALY = 177.2344 EPHEMERIS_TYPE = 0 CLASSIFICATION_TYPE = U NORAD_CAT_ID = 39504 ELEMENT_SET_NO = 999 REV_AT_EPOCH = 4515 BSTAR = 0 MEAN_MOTION_DOT = -.28200E-5 MEAN_MOTION_DDOT = 0 CCSDS_OMM_VERS = 2.0 CREATION_DATE = ORIGINATOR = OBJECT_NAME = GPM-CORE OBJECT_ID = 2014-009C CENTER_NAME = EARTH REF_FRAME = TEME TIME_SYSTEM = UTC MEAN_ELEMENT_THEORY = SGP/SGP4 EPOCH = 2026-09-12T08:11:03.480864 MEAN_MOTION = 15.44888628 ECCENTRICITY = .00112119 INCLINATION = 64.9725 RA_OF_ASC_NODE = 16.0842 ARG_OF_PERICENTER = 259.8217 MEAN_ANOMALY = 100.1659 EPHEMERIS_TYPE = 0 CLASSIFICATION_TYPE = U NORAD_CAT_ID = 39574 ELEMENT_SET_NO = 999 REV_AT_EPOCH = 71127 BSTAR = .18190E-3 MEAN_MOTION_DOT = .83620E-4 MEAN_MOTION_DDOT = 0 CCSDS_OMM_VERS = 2.0 CREATION_DATE = ORIGINATOR = OBJECT_NAME = MMS 1 OBJECT_ID = 2015-011A CENTER_NAME = EARTH REF_FRAME = TEME TIME_SYSTEM = UTC MEAN_ELEMENT_THEORY = SGP/SGP4 EPOCH = 2026-09-12T08:00:01.999872 MEAN_MOTION = 0.28342593 ECCENTRICITY = .82599138 INCLINATION = 72.9221 RA_OF_ASC_NODE = 347.7877 ARG_OF_PERICENTER = 169.3357 MEAN_ANOMALY = 188.1776 EPHEMERIS_TYPE = 0 CLASSIFICATION_TYPE = U NORAD_CAT_ID = 40482 ELEMENT_SET_NO = 999 REV_AT_EPOCH = 140 BSTAR = 0 MEAN_MOTION_DOT = -.17920E-4 MEAN_MOTION_DDOT = 0 CCSDS_OMM_VERS = 2.0 CREATION_DATE = ORIGINATOR = OBJECT_NAME = MMS 2 OBJECT_ID = 2015-011B CENTER_NAME = EARTH REF_FRAME = TEME TIME_SYSTEM = UTC MEAN_ELEMENT_THEORY = SGP/SGP4 EPOCH = 2026-09-12T08:00:01.999872 MEAN_MOTION = 0.28342545 ECCENTRICITY = .82627502 INCLINATION = 72.9265 RA_OF_ASC_NODE = 347.7866 ARG_OF_PERICENTER = 169.3371 MEAN_ANOMALY = 188.1566 EPHEMERIS_TYPE = 0 CLASSIFICATION_TYPE = U NORAD_CAT_ID = 40483 ELEMENT_SET_NO = 999 REV_AT_EPOCH = 140 BSTAR = 0 MEAN_MOTION_DOT = -.17930E-4 MEAN_MOTION_DDOT = 0 CCSDS_OMM_VERS = 2.0 CREATION_DATE = ORIGINATOR = OBJECT_NAME = MMS 3 OBJECT_ID = 2015-011C CENTER_NAME = EARTH REF_FRAME = TEME TIME_SYSTEM = UTC MEAN_ELEMENT_THEORY = SGP/SGP4 EPOCH = 2026-09-12T08:00:01.999872 MEAN_MOTION = 0.28342646 ECCENTRICITY = .82611981 INCLINATION = 72.9269 RA_OF_ASC_NODE = 347.7986 ARG_OF_PERICENTER = 169.3458 MEAN_ANOMALY = 188.1309 EPHEMERIS_TYPE = 0 CLASSIFICATION_TYPE = U NORAD_CAT_ID = 40484 ELEMENT_SET_NO = 999 REV_AT_EPOCH = 140 BSTAR = 0 MEAN_MOTION_DOT = -.17930E-4 MEAN_MOTION_DDOT = 0 CCSDS_OMM_VERS = 2.0 CREATION_DATE = ORIGINATOR = OBJECT_NAME = MMS 4 OBJECT_ID = 2015-011D CENTER_NAME = EARTH REF_FRAME = TEME TIME_SYSTEM = UTC MEAN_ELEMENT_THEORY = SGP/SGP4 EPOCH = 2026-09-12T08:00:01.999872 MEAN_MOTION = 0.28342531 ECCENTRICITY = .82611902 INCLINATION = 72.9197 RA_OF_ASC_NODE = 347.7826 ARG_OF_PERICENTER = 169.3555 MEAN_ANOMALY = 188.1263 EPHEMERIS_TYPE = 0 CLASSIFICATION_TYPE = U NORAD_CAT_ID = 40485 ELEMENT_SET_NO = 999 REV_AT_EPOCH = 140 BSTAR = 0 MEAN_MOTION_DOT = -.17930E-4 MEAN_MOTION_DDOT = 0 CCSDS_OMM_VERS = 2.0 CREATION_DATE = ORIGINATOR = OBJECT_NAME = TDRS 13 OBJECT_ID = 2017-047A CENTER_NAME = EARTH REF_FRAME = TEME TIME_SYSTEM = UTC MEAN_ELEMENT_THEORY = SGP/SGP4 EPOCH = 2026-09-12T07:00:28.946880 MEAN_MOTION = 1.00271604 ECCENTRICITY = .0013625 INCLINATION = 3.4826 RA_OF_ASC_NODE = 4.8153 ARG_OF_PERICENTER = 121.3831 MEAN_ANOMALY = 318.8362 EPHEMERIS_TYPE = 0 CLASSIFICATION_TYPE = U NORAD_CAT_ID = 42915 ELEMENT_SET_NO = 999 REV_AT_EPOCH = 3322 BSTAR = 0 MEAN_MOTION_DOT = -.11200E-5 MEAN_MOTION_DDOT = 0 CCSDS_OMM_VERS = 2.0 CREATION_DATE = ORIGINATOR = OBJECT_NAME = NOAA 20 (JPSS-1) OBJECT_ID = 2017-073A CENTER_NAME = EARTH REF_FRAME = TEME TIME_SYSTEM = UTC MEAN_ELEMENT_THEORY = SGP/SGP4 EPOCH = 2026-09-12T06:18:46.389024 MEAN_MOTION = 14.19525446 ECCENTRICITY = .00016029 INCLINATION = 98.7811 RA_OF_ASC_NODE = 193.965 ARG_OF_PERICENTER = 52.9174 MEAN_ANOMALY = 307.2148 EPHEMERIS_TYPE = 0 CLASSIFICATION_TYPE = U NORAD_CAT_ID = 43013 ELEMENT_SET_NO = 999 REV_AT_EPOCH = 45682 BSTAR = .31247E-4 MEAN_MOTION_DOT = .22000E-6 MEAN_MOTION_DDOT = 0